Time[GMT],current_u[cm/s](16m),current_v[cm/s](16m),current_u[cm/s](24m),current_v[cm/s](24m),current_u[cm/s](32m),current_v[cm/s](32m),current_u[cm/s](40m),current_v[cm/s](40m),current_u[cm/s](48m),current_v[cm/s](48m),current_u[cm/s](56m),current_v[cm/s](56m),current_u[cm/s](64m),current_v[cm/s](64m),current_u[cm/s](72m),current_v[cm/s](72m),current_u[cm/s](80m),current_v[cm/s](80m),current_u[cm/s](88m),current_v[cm/s](88m),current_u[cm/s](96m),current_v[cm/s](96m),current_u[cm/s](104m),current_v[cm/s](104m),current_u[cm/s](112m),current_v[cm/s](112m),current_u[cm/s](120m),current_v[cm/s](120m),current_u[cm/s](128m),current_v[cm/s](128m),current_u[cm/s](136m),current_v[cm/s](136m),current_u[cm/s](144m),current_v[cm/s](144m),current_u[cm/s](152m),current_v[cm/s](152m),current_u[cm/s](160m),current_v[cm/s](160m),current_u[cm/s](168m),current_v[cm/s](168m),current_u[cm/s](176m),current_v[cm/s](176m),current_u[cm/s](184m),current_v[cm/s](184m),current_u[cm/s](192m),current_v[cm/s](192m),current_u[cm/s](200m),current_v[cm/s](200m)
2004-06-03 21:00,29.14,-33.18,21.19,-25.44,20.35,-21.19,18.48,-16.02,13.67,-13.15,6.06,-12.65,-2.24,-16.89,-3.06,-24.82,0.21,-32.70,-0.17,-38.07,1.53,-42.05,2.53,-40.25,1.12,-38.50,-0.57,-34.53,-4.21,-34.65,-5.46,-33.68,-11.59,-32.60,-12.76,-32.87,-14.79,-35.73,-16.01,-38.12,-15.35,-34.96,-17.10,-33.11,-22.87,-23.62,-16.03,-13.86
2004-06-03 22:00,-1.90,-28.44,-3.97,-23.96,-3.12,-18.75,-4.06,-15.80,-8.50,-4.93,-23.24,0.42,-31.72,-8.82,-36.46,-11.39,-37.77,-17.80,-38.51,-24.97,-34.36,-27.10,-33.09,-32.05,-38.99,-31.32,-35.19,-27.79,-36.73,-24.29,-39.19,-26.13,-40.17,-31.91,-44.28,-32.18,-47.90,-30.08,-49.29,-30.32,-48.63,-24.86,-47.50,-23.13,-43.71,-14.35,-29.16,-5.69
2004-06-03 23:00,-46.32,3.93,-36.04,1.35,-28.07,4.01,-27.38,6.75,-35.70,20.26,-41.36,28.73,-51.83,34.51,-59.73,40.48,-60.02,40.39,-57.05,37.03,-60.87,32.24,-71.41,22.87,-71.26,16.51,-65.97,17.05,-69.35,17.75,-70.84,20.11,-69.03,17.75,-69.00,14.39,-73.08,14.66,-76.29,19.41,-76.27,23.30,-72.81,33.44,-65.96,35.33,-43.31,36.09
2004-06-04 00:00,-83.97,45.30,-87.91,48.76,-81.23,44.29,-77.57,40.11,-67.96,40.25,-57.75,36.91,-49.01,37.51,-44.95,44.49,-42.84,50.00,-38.08,57.09,-39.71,61.19,-47.16,55.96,-57.87,52.00,-58.63,48.81,-57.67,46.81,-60.90,49.03,-62.09,50.12,-62.86,52.50,-63.74,52.32,-68.31,54.42,-66.48,62.78,-57.28,67.52,-47.68,72.60,-18.47,48.37
2004-06-04 01:00,-76.89,84.75,-74.55,81.72,-78.25,78.85,-81.74,78.26,-79.75,66.51,-76.88,59.86,-70.44,52.90,-64.24,47.64,-56.63,41.27,-49.42,40.43,-42.83,38.87,-40.36,41.97,-43.65,42.39,-47.45,47.68,-54.85,49.82,-60.50,53.67,-64.90,59.51,-71.05,60.68,-72.74,60.04,-70.83,60.97,-58.05,58.45,-51.09,58.38,-27.23,39.67,3.77,14.76
2004-06-04 02:00,-41.62,65.20,-40.29,68.25,-47.42,73.10,-53.31,66.59,-49.71,60.61,-43.35,52.25,-43.26,48.39,-45.58,38.93,-49.95,32.91,-50.17,21.81,-43.93,24.96,-37.21,29.85,-33.73,35.07,-38.88,38.35,-45.02,41.11,-49.31,42.35,-49.71,46.22,-49.04,49.69,-42.01,47.11,-33.44,50.18,-23.70,47.00,-19.43,41.55,-10.02,28.92,2.97,5.79
2004-06-04 03:00,-8.90,50.29,-14.06,46.42,-19.36,50.50,-23.69,48.59,-25.30,42.82,-22.92,37.70,-21.13,33.76,-23.56,25.94,-26.51,22.37,-29.38,22.49,-26.79,25.53,-27.05,29.96,-25.26,31.90,-22.90,30.77,-22.34,30.64,-18.05,31.70,-16.17,33.04,-13.27,32.18,-7.72,33.86,-1.40,33.16,3.81,30.00,6.39,22.64,6.84,14.69,3.94,1.79
2004-06-04 04:00,20.83,15.93,20.71,19.25,19.34,24.17,11.72,15.52,8.90,10.21,8.29,6.23,3.87,3.97,-0.57,2.76,3.90,9.13,10.98,14.55,10.28,17.69,4.34,18.20,1.52,16.87,1.78,14.75,5.79,14.67,6.60,13.78,5.17,15.31,4.71,16.74,6.29,14.41,12.90,11.49,17.80,5.72,15.66,2.93,13.80,-4.71,7.72,-11.28
2004-06-04 05:00,52.02,-3.36,51.06,-6.92,42.54,-2.31,32.11,-4.81,27.11,-7.89,27.49,-4.83,35.54,2.48,39.29,3.58,40.44,1.96,41.26,-0.93,44.48,-1.47,39.42,3.83,35.92,1.97,37.59,-0.64,38.22,1.35,37.04,6.33,40.42,9.20,46.63,1.63,55.11,-9.72,49.70,-15.13,46.56,-22.34,41.43,-25.66,32.50,-29.58,17.83,-26.10
2004-06-04 06:00,63.19,-39.79,57.64,-32.01,46.60,-32.62,42.67,-33.77,38.09,-30.31,38.13,-35.02,39.72,-34.09,41.86,-29.94,48.40,-24.16,52.73,-18.99,53.24,-15.99,57.58,-14.81,63.97,-12.13,66.97,-6.75,70.56,-2.24,69.29,-3.17,71.62,-12.40,68.96,-18.19,64.72,-23.96,58.60,-31.70,53.77,-38.93,46.49,-45.36,33.67,-46.64,13.58,-26.94
2004-06-04 07:00,53.64,-30.99,48.12,-35.38,46.27,-40.08,45.65,-44.69,52.59,-43.09,50.49,-41.45,49.63,-36.48,53.90,-27.86,62.25,-21.82,64.67,-26.08,70.79,-26.84,73.83,-26.81,75.05,-25.06,78.88,-24.56,79.91,-26.12,79.34,-29.56,78.26,-35.69,71.55,-41.62,64.20,-45.56,56.12,-49.51,48.13,-49.14,44.14,-46.53,30.59,-41.96,13.25,-20.01
2004-06-04 08:00,45.35,-31.65,42.13,-36.99,40.43,-44.15,43.44,-44.34,46.69,-44.35,60.08,-43.83,61.19,-43.37,57.90,-37.71,57.50,-42.35,58.79,-39.83,61.63,-40.18,64.51,-39.99,68.67,-39.19,69.31,-38.24,67.64,-40.25,66.69,-45.80,62.50,-50.41,59.01,-54.26,48.27,-53.19,45.12,-48.95,38.77,-46.16,38.62,-41.79,28.77,-32.35,20.59,-14.40
2004-06-04 09:00,29.18,-29.07,28.70,-24.29,26.37,-22.94,20.08,-22.96,16.96,-27.95,19.09,-30.00,23.79,-36.16,34.06,-37.06,42.67,-39.66,44.74,-38.26,41.85,-39.39,42.34,-40.60,37.18,-40.58,34.76,-39.25,37.72,-37.99,36.00,-42.11,32.31,-46.66,25.37,-47.94,19.66,-43.89,13.40,-40.75,10.83,-35.70,4.39,-29.05,2.01,-20.99,10.03,-13.58
2004-06-04 10:00,35.21,-24.30,30.94,-18.84,21.79,-11.28,10.36,-4.13,10.03,0.81,5.96,1.39,2.01,-1.67,-5.62,-4.74,-11.14,-12.40,-9.18,-17.86,-2.63,-22.90,3.45,-30.71,1.64,-31.93,-1.13,-30.19,-7.31,-31.86,-9.30,-34.49,-8.49,-38.33,-14.37,-40.64,-19.69,-39.09,-24.80,-29.39,-27.86,-25.12,-32.66,-19.62,-33.42,-10.73,-16.70,-5.57
2004-06-04 11:00,-3.50,-13.62,0.38,-2.50,-1.43,1.85,-0.49,4.46,-1.23,6.12,-5.65,9.42,-17.61,11.99,-32.52,13.61,-36.72,11.32,-43.37,7.50,-42.99,-1.52,-40.10,-11.51,-32.95,-16.46,-34.00,-11.86,-35.05,-12.51,-39.32,-12.63,-42.38,-17.18,-47.57,-20.63,-50.17,-15.48,-50.08,-13.14,-51.95,-4.71,-52.14,3.74,-50.78,14.89,-37.51,16.73
2004-06-04 12:00,-56.78,24.09,-52.30,23.86,-43.94,24.65,-35.23,22.72,-29.62,23.89,-29.55,27.59,-28.01,32.60,-32.11,45.04,-36.79,50.47,-42.20,55.56,-47.08,55.36,-53.11,49.95,-56.05,41.76,-55.95,33.60,-57.21,28.37,-59.15,30.48,-57.17,32.16,-59.46,30.80,-59.06,32.82,-61.23,34.01,-62.12,39.08,-53.42,53.85,-41.08,62.53,-17.25,46.87
2004-06-04 13:00,-54.72,47.44,-45.97,47.00,-46.61,57.19,-56.64,63.21,-59.54,52.62,-55.57,47.80,-46.33,43.21,-37.58,42.13,-34.85,48.68,-37.76,48.27,-43.49,53.99,-48.38,55.15,-49.18,54.05,-50.28,54.22,-52.74,49.13,-59.92,46.30,-73.25,42.34,-77.85,41.28,-79.81,38.23,-74.63,43.05,-64.98,52.24,-49.96,60.42,-33.50,55.94,-14.18,38.93
2004-06-04 14:00,-43.33,57.09,-39.24,57.45,-43.38,66.10,-51.69,64.49,-52.18,59.81,-54.67,52.19,-49.58,43.84,-34.25,48.77,-25.79,46.96,-25.94,48.07,-30.74,50.94,-31.36,49.27,-33.71,49.04,-38.14,51.40,-48.23,48.48,-54.74,45.55,-60.90,46.72,-67.18,50.27,-67.41,55.24,-64.67,54.23,-51.24,53.92,-41.20,54.72,-29.95,48.46,-13.98,28.81
2004-06-04 15:00,-9.71,36.79,-2.67,33.17,-6.94,38.94,-8.68,53.19,-16.29,62.83,-21.63,60.17,-27.16,54.82,-31.65,46.24,-29.68,38.78,-26.52,35.49,-20.20,37.41,-15.93,32.28,-9.33,31.03,-6.97,33.16,-10.79,36.55,-20.71,40.61,-26.32,41.75,-30.18,44.61,-26.01,47.00,-16.89,50.98,-13.39,47.27,-5.71,35.14,-6.02,30.21,1.05,23.55
2004-06-04 16:00,15.67,32.97,18.33,25.00,16.73,31.63,20.10,44.68,12.02,51.54,1.60,47.04,-4.31,36.32,-8.87,29.92,-2.75,23.27,0.51,20.01,3.60,19.22,7.41,18.13,9.67,16.65,3.42,17.48,-1.32,23.42,-3.10,26.00,-4.57,29.94,-3.39,30.84,-2.39,29.69,0.37,33.52,1.17,22.85,3.37,16.31,3.33,11.89,3.40,15.58
2004-06-04 17:00,45.04,3.01,50.14,1.50,50.05,7.35,50.01,15.01,43.13,19.73,29.83,23.86,19.52,20.34,18.65,10.61,19.37,1.18,22.92,-3.99,26.20,-4.09,27.80,-2.52,25.07,-3.19,23.33,1.92,18.89,6.27,17.54,7.52,21.05,13.27,27.21,12.41,28.41,9.65,26.92,0.56,25.45,-0.44,21.00,-2.92,15.90,-6.34,10.99,-4.14
2004-06-04 18:00,49.28,-30.18,45.59,-18.34,47.84,-3.76,42.70,3.42,39.11,-0.47,38.65,-7.86,39.43,-12.23,35.04,-11.65,36.00,-16.27,41.30,-14.15,45.33,-10.65,44.31,-7.83,43.60,-6.90,40.00,-2.91,44.39,1.75,49.60,1.22,54.26,-3.16,57.91,-7.98,57.11,-11.39,55.90,-12.51,52.67,-13.23,50.46,-15.20,43.54,-15.22,30.00,-6.44
2004-06-04 19:00,47.92,-45.22,49.69,-38.97,44.24,-34.74,42.50,-31.31,39.34,-26.02,35.22,-23.35,38.01,-23.19,42.04,-30.19,46.73,-32.68,51.82,-29.57,52.37,-25.72,51.51,-20.75,51.12,-15.62,52.76,-10.58,55.32,-7.44,62.26,-15.30,69.82,-20.54,72.09,-27.27,68.95,-27.96,62.86,-29.60,60.32,-33.46,53.74,-33.26,43.73,-31.86,22.87,-19.23
2004-06-04 20:00,34.99,-32.77,26.88,-31.07,29.00,-37.01,35.20,-34.39,35.19,-34.70,37.61,-36.66,38.36,-34.74,41.21,-34.14,43.22,-29.92,43.09,-27.23,46.06,-27.01,50.79,-22.45,54.06,-18.56,55.52,-17.88,63.42,-21.54,70.76,-30.01,71.98,-42.64,65.38,-44.34,58.75,-43.63,52.75,-43.25,44.98,-42.27,39.70,-39.24,31.84,-34.41,16.72,-20.99
2004-06-04 21:00,21.68,-41.67,18.72,-28.54,15.28,-27.97,12.46,-37.49,12.47,-45.05,16.84,-47.53,20.89,-44.13,22.96,-39.79,23.95,-36.32,26.60,-37.04,31.41,-39.59,31.38,-39.50,39.63,-36.74,42.17,-35.51,43.93,-36.73,46.98,-47.20,46.21,-53.33,37.12,-52.15,32.16,-48.81,28.23,-43.77,24.18,-43.91,19.47,-38.07,15.85,-30.41,10.63,-16.44
2004-06-04 22:00,-9.43,-23.61,-7.04,-10.14,-13.64,-6.27,-15.92,-12.25,-21.59,-22.06,-28.44,-26.25,-20.89,-32.75,-10.07,-27.18,-8.99,-24.00,-6.52,-23.20,-5.55,-24.26,-2.40,-27.87,-1.32,-30.25,0.85,-32.08,1.63,-29.94,4.93,-31.71,5.54,-39.50,2.88,-42.66,-2.66,-37.83,-4.55,-34.23,-10.57,-23.66,-11.24,-15.37,-11.32,-8.57,-9.88,1.66
2004-06-04 23:00,-33.55,-8.36,-16.87,-3.73,-8.10,10.84,-13.03,17.35,-24.17,16.71,-29.91,15.29,-33.01,12.19,-32.79,11.84,-29.73,8.20,-27.42,5.90,-19.80,5.09,-17.37,-1.17,-17.30,-5.66,-19.79,-8.35,-19.44,-10.76,-21.84,-12.79,-22.57,-13.44,-27.73,-16.99,-29.96,-12.67,-34.63,-5.97,-30.85,3.85,-31.33,6.64,-26.49,15.76,-21.31,22.88
2004-06-05 00:00,-24.59,30.13,-36.01,23.52,-41.43,14.22,-35.84,7.92,-25.28,10.05,-28.67,18.31,-34.79,28.22,-44.35,33.13,-47.05,40.56,-56.54,40.03,-63.75,37.30,-67.60,35.85,-65.33,32.38,-64.05,33.00,-61.09,29.65,-62.51,24.25,-61.77,16.09,-62.10,9.57,-66.23,7.41,-69.83,14.02,-71.13,25.27,-70.89,38.26,-70.82,47.53,-61.53,49.98
2004-06-05 01:00,-45.48,39.59,-55.45,50.36,-57.00,62.05,-58.29,79.17,-58.96,81.90,-65.18,73.81,-66.88,60.13,-62.52,46.20,-53.15,32.72,-47.19,30.85,-47.00,42.68,-55.58,43.91,-62.10,43.92,-65.75,42.54,-70.70,46.83,-73.45,46.58,-74.43,41.43,-71.00,34.02,-67.19,24.12,-66.84,21.39,-73.59,25.42,-77.50,32.67,-74.41,43.33,-67.01,46.12
2004-06-05 02:00,-42.26,70.45,-41.25,75.82,-46.96,80.50,-57.49,88.46,-66.25,88.59,-67.07,74.46,-65.75,62.18,-61.16,45.58,-53.87,36.27,-43.41,35.43,-40.37,35.14,-45.61,39.02,-49.68,42.86,-49.65,39.83,-54.27,37.19,-53.88,37.63,-48.48,37.47,-46.05,36.78,-47.12,34.23,-52.87,37.74,-54.55,42.98,-49.91,50.77,-41.97,51.22,-25.80,34.88
2004-06-05 03:00,-10.33,49.20,-14.89,60.44,-15.74,69.31,-20.95,75.72,-24.14,81.73,-25.18,76.78,-30.12,59.12,-33.21,42.59,-30.57,29.78,-27.54,23.30,-26.19,24.99,-26.04,30.40,-33.29,35.31,-29.64,36.38,-25.58,34.22,-24.40,35.75,-28.93,34.82,-31.84,37.35,-35.28,41.50,-37.02,46.93,-36.75,45.44,-34.23,41.84,-26.45,36.25,-15.15,19.40
2004-06-05 04:00,3.00,37.09,8.15,47.57,11.69,58.79,14.67,67.83,15.90,73.79,13.39,66.58,5.46,55.63,-3.90,39.29,-10.92,28.11,-14.80,17.30,-14.64,11.26,-11.52,13.32,-11.07,19.45,-9.57,20.66,-8.17,18.91,-11.97,18.63,-9.86,26.45,-8.92,28.75,-4.50,33.00,-4.11,37.33,-6.83,34.67,-7.55,29.40,-5.62,21.09,-5.72,8.98
2004-06-05 05:00,26.11,29.91,27.34,38.82,38.31,43.91,45.50,44.75,42.10,32.11,26.66,19.69,20.24,8.28,13.01,-1.92,10.26,-10.36,9.49,-10.92,9.33,-5.51,12.25,-5.10,14.51,-3.01,14.63,-1.08,12.06,1.04,12.02,6.07,16.04,9.25,19.75,15.69,22.69,12.43,24.86,5.99,24.59,-1.03,20.18,-5.28,20.07,-12.14,14.05,-11.03
2004-06-05 06:00,54.29,4.93,69.19,2.68,70.29,2.19,56.02,0.87,45.33,-10.02,37.13,-19.80,32.88,-29.46,39.35,-27.38,39.80,-23.88,40.75,-21.26,44.85,-21.94,39.52,-18.08,38.26,-14.50,43.99,-11.71,44.09,-4.85,50.70,-2.21,57.36,-3.32,57.68,-9.21,53.14,-10.77,48.13,-14.80,45.29,-17.07,40.53,-21.23,37.87,-24.39,18.45,-18.55
2004-06-05 07:00,67.18,-19.18,70.40,-19.72,59.35,-15.08,44.49,-20.16,43.80,-28.79,51.06,-38.01,52.69,-33.60,52.22,-28.19,52.23,-23.98,54.74,-25.91,51.71,-22.68,49.57,-18.95,52.37,-11.65,60.12,-8.00,64.13,-8.71,66.01,-13.25,65.21,-16.98,65.68,-20.71,62.97,-22.74,61.03,-23.26,57.66,-24.86,54.76,-26.95,48.15,-26.66,28.00,-15.59
2004-06-05 08:00,66.90,-27.15,68.00,-30.58,56.98,-23.72,48.98,-26.29,48.27,-33.23,56.61,-28.46,66.04,-30.36,67.17,-26.01,63.68,-26.61,63.08,-26.38,59.72,-19.16,60.44,-16.51,63.56,-11.84,68.23,-13.28,72.12,-21.48,75.43,-30.50,77.64,-31.16,75.35,-32.21,70.69,-33.07,68.47,-34.00,64.90,-33.36,57.08,-31.88,53.81,-29.56,32.59,-18.42
2004-06-05 09:00,48.54,-35.04,54.34,-30.23,48.54,-20.65,41.08,-20.32,43.41,-29.23,45.88,-34.63,44.95,-36.30,45.50,-35.07,51.80,-31.47,56.22,-28.90,56.66,-26.97,55.01,-27.08,52.70,-21.52,57.85,-19.24,64.23,-28.64,69.09,-35.58,63.43,-40.55,58.69,-37.24,48.88,-35.14,47.21,-35.15,46.20,-34.32,39.33,-29.59,35.14,-28.31,26.57,-14.05
2004-06-05 10:00,7.91,-25.61,16.04,-30.66,27.79,-23.74,23.81,-14.31,19.14,-19.38,17.97,-30.78,14.67,-34.25,12.59,-36.92,17.91,-36.16,21.51,-30.69,25.81,-25.11,26.52,-24.36,27.44,-26.27,29.89,-19.18,32.20,-22.11,36.50,-33.55,33.53,-39.65,24.52,-33.51,17.52,-28.72,13.26,-27.88,15.34,-22.59,11.21,-18.88,9.60,-12.57,7.26,-7.23
2004-06-05 11:00,-12.47,10.70,-3.76,8.45,1.55,-2.55,9.99,-2.99,12.06,1.35,7.88,5.89,1.27,2.93,-6.05,-0.47,-11.16,-5.79,-14.09,-7.47,-14.86,-10.97,-10.44,-11.96,-7.60,-15.57,-5.05,-18.63,-4.66,-20.82,-0.56,-18.87,2.49,-17.58,-2.09,-25.56,-5.54,-26.25,-10.92,-18.32,-16.07,-11.78,-15.08,-5.37,-14.73,3.36,-9.87,5.23
2004-06-05 12:00,-18.67,32.97,-19.03,26.24,-10.52,20.99,-10.84,23.93,-12.02,37.10,-12.59,45.43,-23.67,46.91,-26.70,39.32,-26.41,33.53,-31.24,32.19,-34.21,29.03,-33.01,25.95,-29.02,23.98,-25.04,23.68,-28.42,21.12,-29.52,15.41,-22.59,13.75,-18.80,12.76,-17.44,10.16,-24.45,5.17,-28.37,10.85,-29.26,19.17,-26.70,22.31,-19.99,20.05
2004-06-05 13:00,-5.46,35.01,-20.46,31.66,-36.81,19.79,-30.06,21.33,-24.58,22.25,-26.22,36.53,-27.53,49.77,-38.02,53.96,-45.51,50.82,-46.28,44.06,-44.96,41.23,-47.15,39.90,-53.19,37.43,-51.79,32.42,-49.93,34.80,-49.30,37.42,-51.23,43.42,-48.89,42.70,-47.43,37.81,-52.75,36.73,-61.55,42.21,-61.68,52.77,-59.73,60.43,-49.69,59.56
2004-06-05 14:00,-38.53,62.10,-38.96,51.66,-43.84,48.21,-50.51,42.49,-57.02,39.56,-53.25,43.50,-50.95,45.50,-42.95,45.45,-38.65,51.03,-34.22,54.24,-36.99,55.03,-38.23,51.37,-38.76,52.36,-42.25,51.76,-46.21,50.38,-47.98,51.29,-46.91,52.89,-47.92,50.78,-50.63,48.76,-49.88,42.17,-54.92,43.81,-57.61,51.87,-53.91,54.74,-21.66,28.54
2004-06-05 15:00,-33.28,65.04,-36.01,68.99,-41.56,76.45,-46.17,82.64,-45.03,82.69,-48.45,80.23,-47.87,68.97,-45.44,54.83,-42.61,44.72,-32.63,43.09,-24.15,43.50,-14.27,39.53,-18.32,39.07,-17.48,38.08,-19.91,35.20,-20.10,35.45,-23.18,40.14,-30.24,42.17,-38.11,42.17,-39.34,45.66,-35.03,51.87,-34.08,52.18,-24.87,47.05,-4.89,18.18
2004-06-05 16:00,0.57,71.18,-0.46,64.23,-3.89,63.13,-13.08,63.96,-13.26,65.17,-16.68,61.76,-20.52,57.69,-22.80,51.07,-20.97,39.48,-19.67,28.55,-15.15,22.97,-16.48,25.48,-20.24,28.37,-22.58,31.40,-24.86,36.87,-26.67,41.53,-29.17,47.03,-29.85,51.75,-28.23,52.27,-23.07,55.50,-14.56,47.00,-10.02,40.05,-11.77,33.40,-7.50,5.36
2004-06-05 17:00,23.74,39.24,14.92,39.24,9.22,41.93,11.69,39.15,3.06,33.65,-3.01,30.96,-6.99,28.32,-5.70,19.39,-3.75,7.09,3.72,7.71,1.64,5.67,4.73,13.07,5.93,21.12,3.83,23.39,3.95,25.32,2.12,25.47,-1.57,29.74,2.85,34.31,6.73,30.73,10.42,21.20,10.65,10.35,10.24,8.01,3.23,5.97,-0.44,3.33
2004-06-05 18:00,26.70,12.04,35.13,16.85,34.90,15.62,22.37,12.75,14.25,13.50,13.55,10.13,9.73,2.07,11.73,-5.79,20.78,-8.45,25.69,-10.03,25.34,-4.99,28.03,1.33,28.92,3.82,31.43,7.78,28.71,10.69,28.91,17.58,32.72,21.43,34.10,15.47,36.72,3.07,37.37,-4.18,33.79,-7.11,31.45,-12.59,26.13,-13.98,22.38,-12.46
2004-06-05 19:00,33.60,-10.11,45.59,-6.89,41.90,-9.13,31.67,-7.37,25.99,-8.98,24.30,-13.52,29.54,-19.40,40.21,-24.16,46.54,-23.92,44.24,-20.03,41.91,-19.31,47.04,-18.61,49.91,-16.43,49.91,-19.37,46.40,-13.67,44.91,-8.06,46.03,1.23,47.78,2.32,47.95,-5.40,50.99,-10.31,48.27,-13.28,43.80,-19.65,41.03,-24.11,31.07,-18.59
2004-06-05 20:00,33.71,-20.58,38.76,-15.70,33.22,-12.86,28.98,-15.69,30.69,-27.22,39.83,-38.36,42.79,-36.78,42.02,-38.29,40.99,-37.04,47.41,-34.14,48.46,-35.80,50.47,-34.52,52.42,-35.05,52.59,-25.76,62.40,-19.35,70.41,-27.28,75.29,-34.64,73.33,-35.38,69.72,-35.59,61.83,-34.24,54.71,-34.32,49.27,-39.95,47.45,-41.48,33.94,-31.12
2004-06-05 21:00,32.72,-18.48,45.66,-14.96,37.38,-14.68,28.01,-21.15,25.68,-34.19,33.48,-46.70,41.58,-43.47,44.22,-39.26,39.43,-43.32,38.51,-40.46,40.89,-40.02,41.79,-41.83,39.55,-38.13,39.07,-35.66,43.71,-33.44,48.97,-27.55,56.45,-34.50,60.88,-42.74,60.18,-45.48,54.04,-45.98,51.74,-42.41,44.49,-40.12,37.82,-40.27,25.86,-38.33
2004-06-05 22:00,14.80,-14.68,23.09,-16.64,18.60,-14.09,8.91,-17.94,0.37,-24.04,5.68,-38.30,13.16,-45.56,22.48,-43.20,25.31,-39.24,29.17,-38.84,23.85,-36.98,24.04,-36.60,21.70,-39.14,19.78,-36.08,22.30,-37.06,23.48,-33.21,28.65,-31.97,35.74,-36.73,38.45,-43.53,31.76,-39.06,27.75,-41.61,25.38,-41.11,17.83,-35.24,11.48,-28.24
2004-06-05 23:00,8.66,2.15,6.77,-2.76,3.16,-5.92,-7.92,-4.43,-16.48,-0.35,-23.15,0.13,-31.35,-6.39,-31.26,-18.44,-26.37,-28.42,-19.84,-29.79,-15.16,-29.97,-16.05,-30.15,-18.14,-30.51,-14.40,-29.09,-15.10,-29.53,-10.49,-30.15,-12.32,-30.00,-7.37,-31.67,-4.74,-28.09,-1.13,-33.76,-6.59,-38.03,-13.20,-35.43,-16.65,-29.92,-16.77,-23.34
2004-06-06 00:00,-3.66,9.43,-0.50,6.14,-6.32,5.95,-13.06,11.56,-27.31,18.64,-38.49,17.16,-44.60,8.05,-37.40,0.70,-34.80,-4.14,-34.76,-3.28,-36.59,-5.45,-39.16,1.92,-39.63,2.40,-37.45,1.84,-34.96,-1.04,-38.49,-5.74,-37.81,-4.58,-31.75,-3.16,-32.73,-7.99,-42.64,-9.17,-48.79,-5.06,-52.49,3.52,-51.03,7.14,-50.15,9.00
2004-06-06 01:00,-33.79,15.62,-30.48,15.11,-24.23,16.90,-27.29,20.54,-41.91,24.88,-54.99,26.35,-59.71,19.48,-63.06,16.83,-56.94,18.69,-54.08,25.17,-50.89,24.73,-48.98,23.66,-53.83,22.73,-58.06,26.10,-62.18,30.76,-64.01,28.29,-65.35,29.85,-61.06,31.86,-60.19,31.09,-62.45,32.57,-62.82,41.27,-60.14,46.65,-54.72,47.76,-37.75,40.71
2004-06-06 02:00,-85.23,68.21,-80.83,63.01,-76.96,58.47,-74.02,52.59,-65.98,47.19,-63.27,46.27,-61.53,47.04,-61.10,43.09,-61.52,41.79,-57.00,41.78,-53.10,40.09,-50.01,41.60,-46.91,41.76,-45.38,45.50,-47.03,50.65,-49.43,48.30,-55.42,47.64,-58.98,42.71,-61.10,39.51,-63.63,42.80,-63.76,44.85,-54.52,51.39,-46.41,52.32,-7.19,27.94
2004-06-06 03:00,-66.25,88.59,-72.15,87.32,-67.40,84.96,-60.49,77.52,-60.18,65.75,-61.04,59.59,-59.85,55.56,-60.11,52.44,-57.45,46.46,-57.96,37.90,-57.82,33.53,-54.20,31.75,-46.95,35.02,-33.31,41.92,-34.47,51.11,-40.57,51.46,-47.99,47.08,-57.15,39.94,-57.75,42.80,-58.28,51.66,-49.73,52.51,-44.51,52.61,-26.51,36.12,-8.82,12.08
2004-06-06 04:00,-26.46,80.46,-26.08,86.78,-34.40,80.64,-30.07,74.68,-27.14,70.79,-32.35,66.07,-35.96,54.41,-34.40,43.68,-35.96,42.97,-36.59,45.28,-38.60,47.26,-44.51,47.04,-41.02,45.65,-38.21,38.88,-31.06,36.24,-23.98,39.04,-30.30,36.48,-35.93,36.99,-35.25,44.03,-27.68,47.62,-18.17,44.48,-12.12,41.69,-9.50,33.18,-4.00,12.47
2004-06-06 05:00,13.92,57.72,12.46,59.66,12.25,58.02,6.46,48.92,9.04,39.56,9.08,37.15,-4.24,33.82,-7.61,26.97,-9.70,26.93,-7.33,29.05,-10.36,32.91,-7.54,35.60,-12.36,34.89,-13.06,31.83,-13.52,27.06,-11.98,26.51,-9.77,28.79,-10.90,32.31,-7.49,35.09,0.63,34.34,8.90,26.91,8.86,12.30,4.62,6.21,-1.01,-0.12
2004-06-06 06:00,38.69,38.15,38.65,39.92,32.66,30.76,32.74,23.32,32.93,15.19,21.99,17.88,10.81,10.82,5.79,8.47,2.87,11.01,3.04,8.85,6.80,8.59,6.59,9.57,7.22,4.00,10.70,4.28,13.10,6.31,12.45,7.67,16.33,9.34,18.83,6.78,29.02,1.86,30.61,-11.28,25.84,-17.33,21.91,-20.48,16.52,-21.69,17.42,-23.18
2004-06-06 07:00,56.24,-13.24,52.42,-18.35,45.17,-4.93,34.21,-9.39,29.13,-7.98,31.64,-6.96,32.57,-3.30,32.58,0.59,32.79,-0.08,33.91,-7.81,40.12,-15.69,47.50,-14.47,49.21,-5.42,44.55,-1.03,43.25,2.02,43.55,2.74,42.85,2.31,42.10,3.96,45.68,1.01,47.05,-9.15,46.30,-19.58,44.86,-23.93,41.09,-27.87,34.43,-26.12
2004-06-06 08:00,42.87,-26.88,45.31,-17.48,43.56,-13.32,39.58,-18.59,46.66,-9.91,50.26,-10.65,46.85,-15.73,41.58,-23.52,42.18,-31.62,50.26,-39.11,58.09,-35.02,60.91,-25.50,61.44,-20.29,57.00,-21.82,52.03,-22.37,54.20,-14.42,66.91,-17.69,72.31,-30.24,67.42,-34.65,60.96,-38.40,56.58,-42.43,54.05,-42.72,50.78,-43.67,46.32,-35.33
2004-06-06 09:00,37.74,-30.52,28.11,-34.88,29.51,-27.81,43.57,-23.19,45.83,-22.04,45.71,-21.66,43.04,-25.46,44.87,-37.37,50.63,-42.56,52.48,-47.32,55.13,-50.36,58.94,-52.07,59.76,-49.08,56.55,-42.66,64.93,-39.97,72.16,-40.58,78.88,-42.52,66.83,-44.60,60.16,-47.38,53.14,-50.05,48.55,-50.47,42.16,-47.90,39.28,-45.15,35.29,-37.30
2004-06-06 10:00,32.26,-25.56,23.17,-32.26,24.40,-32.81,43.09,-27.23,46.36,-26.29,40.29,-31.28,39.06,-31.05,36.47,-36.08,37.37,-43.46,40.47,-49.50,44.24,-54.38,46.00,-55.60,46.40,-56.84,48.09,-58.18,52.58,-55.17,57.90,-51.78,58.72,-52.36,56.21,-50.43,47.13,-53.24,41.55,-57.13,36.67,-52.40,30.20,-48.59,26.23,-35.90,18.98,-28.36
2004-06-06 11:00,6.40,-15.69,-1.58,-13.74,-2.87,-13.31,14.24,-19.16,19.28,-24.06,15.99,-21.33,16.45,-28.33,14.98,-35.52,12.63,-39.32,13.11,-47.36,11.40,-53.16,10.07,-58.84,12.35,-61.36,12.12,-56.08,15.36,-49.47,22.36,-48.06,26.06,-51.08,20.24,-46.02,13.60,-42.69,7.30,-37.46,7.14,-31.74,2.64,-24.25,4.02,-14.15,3.71,-4.37
2004-06-06 12:00,-7.03,18.96,-11.73,23.12,-20.30,25.62,-21.21,29.11,-20.75,31.25,-12.15,19.84,-7.71,6.03,-9.01,0.57,-5.23,-1.37,-7.85,-8.93,-7.85,-12.50,-9.66,-16.02,-9.19,-21.43,-10.92,-29.45,-13.38,-31.29,-13.81,-30.59,-15.48,-29.65,-15.26,-30.00,-20.08,-31.02,-22.13,-27.58,-23.00,-23.56,-27.27,-15.16,-28.35,-6.58,-19.50,-2.06
2004-06-06 13:00,-2.73,27.16,-5.76,31.02,-13.78,37.69,-20.61,43.59,-23.81,31.95,-24.72,18.11,-26.82,16.49,-28.66,11.07,-29.30,12.44,-32.07,10.92,-38.76,6.88,-42.03,2.36,-43.20,-0.22,-43.48,0.32,-44.52,-2.00,-41.90,-5.26,-45.07,-3.55,-47.05,-5.23,-47.18,0.08,-49.17,3.01,-48.41,15.02,-46.29,20.53,-40.66,26.86,-22.41,21.06
2004-06-06 14:00,-24.12,29.01,-27.84,36.01,-26.35,33.34,-26.61,24.65,-29.45,22.05,-31.62,25.87,-34.76,22.24,-36.84,23.15,-43.20,25.30,-49.60,24.93,-53.59,21.02,-53.64,22.16,-57.75,25.47,-60.79,27.43,-63.30,26.41,-59.79,26.59,-58.07,25.15,-55.56,28.79,-57.34,36.94,-56.63,40.63,-54.73,49.75,-47.25,56.88,-35.38,63.10,-16.76,43.35
2004-06-06 15:00,-57.48,46.56,-53.41,51.54,-44.82,53.88,-34.00,51.26,-39.41,53.72,-43.45,48.96,-36.35,41.58,-32.42,39.80,-33.62,42.56,-37.88,40.46,-41.40,34.39,-39.78,34.91,-36.30,43.06,-39.70,50.38,-44.73,52.96,-47.28,48.47,-46.58,45.96,-46.79,44.32,-47.12,42.74,-51.80,46.18,-51.36,51.67,-42.45,59.26,-16.19,57.29,6.04,20.11
2004-06-06 16:00,-55.15,68.73,-48.02,64.83,-47.51,70.45,-51.01,68.91,-50.09,68.99,-47.48,67.41,-41.33,65.92,-31.14,63.63,-26.51,50.51,-24.94,41.36,-19.84,33.33,-26.24,29.07,-26.85,31.29,-30.39,39.71,-27.11,44.54,-29.00,45.51,-29.67,48.24,-33.74,48.82,-34.79,50.80,-32.05,53.36,-26.93,55.42,-15.49,51.85,-3.14,39.22,5.02,10.85
2004-06-06 17:00,-15.84,48.69,-7.68,46.16,-5.85,48.32,-2.33,49.14,-1.61,45.59,-2.51,47.72,-11.62,47.63,-14.63,41.31,-18.19,39.64,-24.62,33.16,-26.28,31.16,-25.93,34.63,-26.80,33.09,-20.61,35.40,-18.59,37.30,-18.38,39.58,-18.92,39.61,-17.78,39.66,-18.32,35.81,-17.91,33.21,-15.04,27.21,-10.79,19.22,-4.05,13.93,-2.61,-1.36
2004-06-06 18:00,3.47,21.59,1.53,24.33,0.99,26.68,10.95,20.85,8.92,22.61,8.97,30.29,10.39,38.31,11.05,32.64,10.06,26.23,3.77,20.64,-1.23,17.25,2.72,19.99,10.08,19.31,16.96,20.46,16.62,21.51,15.40,22.69,15.24,22.85,14.26,19.39,11.88,16.31,10.03,9.31,10.09,-0.02,9.39,-5.70,7.40,-5.40,6.28,-6.81
2004-06-06 19:00,20.84,3.12,32.39,-2.41,33.02,-2.42,29.05,-0.86,29.56,4.45,31.04,9.97,29.97,10.36,23.49,7.96,16.45,3.08,22.62,3.16,30.68,-0.02,35.40,-4.60,38.70,-0.81,41.05,0.37,39.32,1.18,37.30,0.95,38.39,-0.49,37.63,-6.30,35.96,-14.19,31.71,-21.22,29.19,-22.56,25.50,-24.48,22.94,-24.98,14.43,-18.79